Location: Dehesa de la Cepeda
(40.6574°N, 4.3013°W)
Time: 03:56:20
(UTC+00:00)

Transit 2A - All Passes

Search period start: 06 August 2021 00:00
Search period end: 16 August 2021 00:00
Orbit: 598 x 961 km, 66.7° (Epoch: 05 August)

Date Brightness Start Highest point End Pass type
(mag) Time Alt. Az. Time Alt. Az. Time Alt. Az.
06 Aug - 04:05:44 10° SSE 04:08:50 19° ESE 04:12:03 10° ENE visible
06 Aug - 05:47:26 10° SW 05:51:35 41° NW 05:56:02 10° NNE daylight
06 Aug - 12:50:11 10° N 12:54:38 24° NE 12:59:21 10° E daylight
06 Aug - 14:32:36 10° NW 14:38:10 63° WSW 14:44:14 10° SSE daylight
07 Aug - 03:33:14 10° SE 03:34:54 12° ESE 03:36:36 10° E visible
07 Aug - 05:12:59 10° SW 05:17:19 63° WNW 05:21:58 10° NNE daylight
07 Aug - 12:16:27 10° N 12:20:11 18° NE 12:24:06 10° E daylight
07 Aug - 13:58:21 10° NNW 14:04:01 88° WSW 14:10:10 10° SSE daylight
07 Aug - 15:43:58 10° WNW 15:46:34 13° WSW 15:49:16 10° SW daylight
08 Aug - 04:38:45 10° SSW 04:43:07 84° ESE 04:47:48 10° NNE visible
08 Aug - 06:24:43 10° WNW 06:27:02 14° NW 06:29:25 10° N daylight
08 Aug - 11:42:58 10° N 11:45:39 13° NE 11:48:27 10° ENE daylight
08 Aug - 13:24:12 10° NNW 13:29:48 67° ENE 13:35:53 10° SE daylight
08 Aug - 15:08:32 10° WNW 15:12:36 20° WSW 15:16:51 10° SSW daylight
09 Aug - 04:04:45 10° S 04:08:59 52° ESE 04:13:30 10° NE visible
09 Aug - 05:49:19 10° W 05:52:31 19° NW 05:55:54 10° N daylight
09 Aug - 12:50:07 10° NNW 12:55:32 47° NE 13:01:24 10° SE daylight
09 Aug - 14:33:42 10° NW 14:38:34 29° WSW 14:43:43 10° SSW daylight
10 Aug - 03:31:01 10° S 03:34:55 33° ESE 03:39:03 10° NE visible
10 Aug - 05:14:19 10° WSW 05:18:06 26° NW 05:22:07 10° N daylight
10 Aug - 12:16:08 10° NNW 12:21:14 35° NE 12:26:42 10° ESE daylight
10 Aug - 13:59:09 10° NW 14:04:30 41° WSW 14:10:12 10° S daylight
11 Aug - 02:57:37 10° SSE 03:00:55 21° ESE 03:04:22 10° ENE visible
11 Aug - 04:39:36 10° WSW 04:43:44 38° NW 04:48:10 10° NNE visible
11 Aug - 11:42:14 10° N 11:46:50 26° NE 11:51:46 10° ESE daylight
11 Aug - 13:24:45 10° NW 13:30:22 59° WSW 13:36:25 10° SSE daylight
12 Aug - 02:24:51 10° SE 02:26:58 13° ESE 02:29:09 10° ENE visible
12 Aug - 04:05:07 10° SW 04:09:26 58° WNW 04:14:08 10° NNE visible
12 Aug - 11:08:26 10° N 11:12:25 19° NE 11:16:35 10° E daylight
12 Aug - 12:50:29 10° NNW 12:56:12 83° WSW 13:02:23 10° SSE daylight
12 Aug - 14:36:28 10° W 14:38:43 12° WSW 14:41:01 10° SW daylight
13 Aug - 03:30:50 10° SSW 03:35:14 89° WNW 03:39:59 10° NNE visible
13 Aug - 05:17:04 10° WNW 05:19:13 13° NW 05:21:28 10° N daylight
13 Aug - 10:34:52 10° N 10:37:54 15° NE 10:41:03 10° ENE daylight
13 Aug - 12:16:19 10° NNW 12:22:00 71° ENE 12:28:09 10° SE daylight
13 Aug - 14:00:50 10° WNW 14:04:45 19° WSW 14:08:49 10° SSW daylight
14 Aug - 02:56:47 10° SSW 03:01:05 58° ESE 03:05:42 10° NE visible
14 Aug - 04:41:35 10° W 04:44:42 18° NW 04:48:00 10° N visible
14 Aug - 10:01:54 10° NNE 10:03:19 11° NE 10:04:46 10° NE daylight
14 Aug - 11:42:13 10° NNW 11:47:45 51° ENE 11:53:42 10° SE daylight
14 Aug - 13:25:56 10° NW 13:30:44 27° WSW 13:35:47 10° SSW daylight
15 Aug - 02:23:00 10° S 02:27:01 36° ESE 02:31:18 10° NE visible
15 Aug - 04:06:33 10° WSW 04:10:15 25° NW 04:14:14 10° N visible
15 Aug - 11:08:12 10° NNW 11:13:26 37° NE 11:19:03 10° ESE daylight
15 Aug - 12:51:20 10° NW 12:56:40 38° WSW 13:02:20 10° S daylight
